Weather History for Spencer, IA

Change the Weather History Date:

Monday, August 26, 2013

  Actual Average Record
Temperature  
Mean Temperature 84 °F -  
Max Temperature 93 °F 80 °F 96 °F (1976)
Min Temperature 75 °F 58 °F 46 °F (1985)
Cooling Degree Days 19    
Growing Degree Days 34 (Base 50)    
Moisture  
Dew Point 71 °F    
Average Humidity 67    
Maximum Humidity 82    
Minimum Humidity 50    
Precipitation  
Precipitation 0.00 in - - ()
Sea Level Pressure  
Sea Level Pressure 29.96 in    
Wind  
Wind Speed 11 mph (SSW)    
Max Wind Speed 16 mph    
Max Gust Speed 24 mph    
Visibility 10 miles    
Events      
Averages and records for this station are not official NWS values.
T = Trace of Precipitation, MM = Missing Value Source: NWS Daily Summary

Daily Weather History Graph

Daily Weather History Graph

Search for Another Location

Airport:

Trip Planner

Search our weather history database for the weather conditions in past years. The results will help you decide how hot, cold, wet, or windy it might be!

Date:

Astronomy

Aug. 26, 2013 Rise Set
Actual Time 6:38 AM CDT 8:05 PM CDT
Civil Twilight 6:09 AM CDT 8:35 PM CDT
Nautical Twilight 5:33 AM CDT 9:10 PM CDT
Astronomical Twilight 4:54 AM CDT 9:48 PM CDT
Moon 11:05 PM CDT (8/26) 12:52 PM CDT (8/26)
Length of Visible Light 14h 26m
Length of Day
13h 26m
Waning Gibbous, 66% of the Moon is Illuminated
Aug 26
Waning Gibbous
Aug 28
Last Quarter
Sep 5
New
Sep 12
First Quarter
Sep 19
Full

Hourly Weather History & Observations

Time (CDT) Temp. Heat Index Dew Point Humidity Pressure Visibility Wind Dir Wind Speed Gust Speed Precip Events Conditions
12:53 AM 79.0 °F - 72.0 °F 79% 30.01 in 10.0 mi SSW 11.5 mph - N/A   Clear
1:53 AM 79.0 °F - 72.0 °F 79% 30.01 in 10.0 mi SSW 11.5 mph - N/A   Clear
2:53 AM 79.0 °F - 71.1 °F 77% 30.00 in 10.0 mi SSW 11.5 mph - N/A   Clear
3:53 AM 77.0 °F - 70.0 °F 79% 30.01 in 10.0 mi SSW 8.1 mph - N/A   Clear
4:53 AM 75.9 °F - 70.0 °F 82% 30.01 in 10.0 mi SSW 6.9 mph - N/A   Clear
5:53 AM 75.9 °F - 69.1 °F 79% 30.00 in 10.0 mi SSW 10.4 mph - N/A   Clear
6:53 AM 75.0 °F - 68.0 °F 79% 30.01 in 10.0 mi SSW 9.2 mph - N/A   Clear
7:53 AM 77.0 °F - 68.0 °F 74% 30.01 in 10.0 mi SW 5.8 mph - N/A   Clear
8:53 AM 80.1 °F 82.9 °F 69.1 °F 69% 30.01 in 10.0 mi SSW 9.2 mph - N/A   Clear
9:53 AM 82.9 °F 86.5 °F 69.1 °F 63% 30.00 in 10.0 mi SW 11.5 mph 20.7 mph N/A   Clear
10:53 AM 86.0 °F 90.7 °F 70.0 °F 59% 30.00 in 10.0 mi SSW 11.5 mph - N/A   Clear
11:53 AM 89.1 °F 94.1 °F 70.0 °F 53% 29.99 in 10.0 mi SW 12.7 mph 21.9 mph N/A   Clear
12:53 PM 91.0 °F 97.6 °F 71.1 °F 52% 29.97 in 10.0 mi South 16.1 mph - N/A   Clear
1:53 PM 91.9 °F 98.4 °F 71.1 °F 50% 29.96 in 10.0 mi South 13.8 mph - N/A   Clear
2:53 PM 93.0 °F 100.7 °F 72.0 °F 50% 29.94 in 10.0 mi South 13.8 mph - N/A   Clear
3:53 PM 93.0 °F 101.9 °F 73.0 °F 52% 29.92 in 10.0 mi South 16.1 mph 24.2 mph N/A   Clear
4:53 PM 93.0 °F 101.9 °F 73.0 °F 52% 29.91 in 10.0 mi South 13.8 mph 19.6 mph N/A   Clear
5:53 PM 91.9 °F 101.3 °F 73.9 °F 55% 29.90 in 10.0 mi South 13.8 mph - N/A   Clear
6:53 PM 89.1 °F 98.0 °F 73.9 °F 61% 29.89 in 10.0 mi South 11.5 mph - N/A   Clear
7:53 PM 86.0 °F 93.0 °F 73.0 °F 65% 29.88 in 10.0 mi South 9.2 mph - N/A   Clear
8:53 PM 82.0 °F 87.4 °F 73.0 °F 74% 29.88 in 10.0 mi South 8.1 mph - N/A   Clear
9:53 PM 82.0 °F 87.4 °F 73.0 °F 74% 29.88 in 10.0 mi South 10.4 mph - N/A   Clear
10:53 PM 82.0 °F 86.7 °F 72.0 °F 71% 29.88 in 10.0 mi SSW 9.2 mph - N/A   Clear
11:53 PM 80.1 °F 83.6 °F 71.1 °F 74% 29.88 in 10.0 mi SSW 10.4 mph - N/A   Clear